Weather in Aurillac

France     44°54′46″N   2°25′50″E
temp.,
°C
wind,
m/s
gust,
m/s
humid.,
%
clouds,
%
prec.,
mm/h
press.,
hPa
HPBL,
m
10 april, sat
sat1023:00+6sse31085100 0.1 1019744
02:00+4se21195100 0.8 1019782
05:00+4se21094100 0.1 1018703
08:00+4se31193100 0.1 1017653
11:00+6se31191100 0.0 1017679
14:00+8sse3980100 0.0 1015745
17:00+9sse4981100 0.0 1013741
20:00+7se31186100 0.1 1013708
11 april, sun
sun1123:00+5se299396 0.0 1013412
02:00+7se3108899 0.0 1012605
05:00+7se279099 0.0 1011586
08:00+7sse31090100 0.0 1011630
11:00+6s1799100 1.4 1013653
14:00+7wsw2599100 6.6 1013432
17:00+5wnw2699100 4.3 1015910
20:00+3nnw1299100 8.9 1018196
12 april, mon
mon1223:00+2wnw179984 0.3 1020608
02:00+1nnw1198100 0.3 102246
05:00+1wnw1399100 0.6 1022297
08:000wnw269996 1.3 1024543
11:000nnw289649 1.4 1025636
14:00+5n486071 1.6 10251668
17:00+5n485343 0.0 10252079
20:00+2n49674 0.1 10281133
13 april, tue
tue1323:00−1n210878 0.0 1030618
02:00−2n29886 0.0 1031406
05:00−4n26938 0.0 1031230
08:00−3nne13896 0.0 103187
11:00+4n36481 0.0 10291103
14:00+8nne36395 0.0 10271725
17:00+8nne363818 0.0 10251971
20:00+5nne27605 0.0 1027413
14 april, wed
wed1423:00−1ne24875 0.0 103067
02:00−2ene249265 0.0 102968
05:00−2ene2391100 0.0 102862
08:00−1ene1384100 0.0 1027101
11:00+6ene1245100 0.0 1025853
14:00+9ne233530 0.0 10231676
17:00+9ne443735 0.0 10231713
20:00+5ne38510 0.0 1024826